Year,Month,Day,Hour,Minute,Value (Times are PST for temperature in C)
2009,08,23,00,00,14.10
2009,08,23,00,01,14.10
2009,08,23,00,02,14.10
2009,08,23,00,03,14.00
2009,08,23,00,04,14.00
2009,08,23,00,05,14.00
2009,08,23,00,06,14.00
2009,08,23,00,07,13.90
2009,08,23,00,08,13.90
2009,08,23,00,09,13.90
2009,08,23,00,10,13.80
2009,08,23,00,11,13.80
2009,08,23,00,12,13.80
2009,08,23,00,13,13.80
2009,08,23,00,14,13.70
2009,08,23,00,15,13.70
2009,08,23,00,16,13.70
2009,08,23,00,17,13.70
2009,08,23,00,18,13.70
2009,08,23,00,19,13.70
2009,08,23,00,20,13.60
2009,08,23,00,21,13.60
2009,08,23,00,22,13.60
2009,08,23,00,23,13.60
2009,08,23,00,24,13.60
2009,08,23,00,25,13.50
2009,08,23,00,26,13.50
2009,08,23,00,27,13.50
2009,08,23,00,28,13.50
2009,08,23,00,29,13.40
2009,08,23,00,30,13.40
2009,08,23,00,31,13.40
2009,08,23,00,32,13.30
2009,08,23,00,33,13.30
2009,08,23,00,34,13.30
2009,08,23,00,35,13.30
2009,08,23,00,36,13.30
2009,08,23,00,37,13.30
2009,08,23,00,38,13.30
2009,08,23,00,39,13.30
2009,08,23,00,40,13.30
2009,08,23,00,41,13.30
2009,08,23,00,42,13.20
2009,08,23,00,43,13.20
2009,08,23,00,44,13.20
2009,08,23,00,45,13.20
2009,08,23,00,46,13.20
2009,08,23,00,47,13.20
2009,08,23,00,48,13.20
2009,08,23,00,49,13.20
2009,08,23,00,50,13.10
2009,08,23,00,51,13.10
2009,08,23,00,52,13.10
2009,08,23,00,53,13.10
2009,08,23,00,54,13.10
2009,08,23,00,55,13.10
2009,08,23,00,56,13.10
2009,08,23,00,57,13.10
2009,08,23,00,58,13.10
2009,08,23,00,59,13.10
2009,08,23,01,00,13.10
2009,08,23,01,01,13.10
2009,08,23,01,02,13.10
2009,08,23,01,03,13.10
2009,08,23,01,04,13.10
2009,08,23,01,05,13.10
2009,08,23,01,06,13.10
2009,08,23,01,07,13.10
2009,08,23,01,08,13.10
2009,08,23,01,09,13.10
2009,08,23,01,10,13.10
2009,08,23,01,11,13.10
2009,08,23,01,12,13.10
2009,08,23,01,13,13.10
2009,08,23,01,14,13.10
2009,08,23,01,15,13.10
2009,08,23,01,16,13.10
2009,08,23,01,17,13.10
2009,08,23,01,18,13.10
2009,08,23,01,19,13.10
2009,08,23,01,20,13.10
2009,08,23,01,21,13.10
2009,08,23,01,22,13.10
2009,08,23,01,23,13.10
2009,08,23,01,24,13.10
2009,08,23,01,25,13.10
2009,08,23,01,26,13.10
2009,08,23,01,27,13.10
2009,08,23,01,28,13.10
2009,08,23,01,29,13.10
2009,08,23,01,30,13.10
2009,08,23,01,31,13.10
2009,08,23,01,32,13.10
2009,08,23,01,33,13.10
2009,08,23,01,34,13.10
2009,08,23,01,35,13.10
2009,08,23,01,36,13.10
2009,08,23,01,37,13.10
2009,08,23,01,38,13.00
2009,08,23,01,39,13.00
2009,08,23,01,40,13.00
2009,08,23,01,41,13.00
2009,08,23,01,42,13.00
2009,08,23,01,43,13.00
2009,08,23,01,44,13.00
2009,08,23,01,45,13.00
2009,08,23,01,46,13.00
2009,08,23,01,47,13.00
2009,08,23,01,48,13.00
2009,08,23,01,49,12.90
2009,08,23,01,50,12.90
2009,08,23,01,51,12.90
2009,08,23,01,52,12.90
2009,08,23,01,53,12.90
2009,08,23,01,54,12.90
2009,08,23,01,55,12.90
2009,08,23,01,56,12.90
2009,08,23,01,57,12.90
2009,08,23,01,58,12.90
2009,08,23,01,59,12.80
2009,08,23,02,00,12.80
2009,08,23,02,01,12.80
2009,08,23,02,02,12.80
2009,08,23,02,03,12.80
2009,08,23,02,04,12.80
2009,08,23,02,05,12.80
2009,08,23,02,06,12.80
2009,08,23,02,07,12.80
2009,08,23,02,08,12.80
2009,08,23,02,09,12.80
2009,08,23,02,10,12.80
2009,08,23,02,11,12.80
2009,08,23,02,12,12.80
2009,08,23,02,13,12.80
2009,08,23,02,14,12.80
2009,08,23,02,15,12.80
2009,08,23,02,16,12.80
2009,08,23,02,17,12.80
2009,08,23,02,18,12.80
2009,08,23,02,19,12.80
2009,08,23,02,20,12.80
2009,08,23,02,21,12.80
2009,08,23,02,22,12.80
2009,08,23,02,23,12.80
2009,08,23,02,24,12.80
2009,08,23,02,25,12.80
2009,08,23,02,26,12.70
2009,08,23,02,27,12.70
2009,08,23,02,28,12.70
2009,08,23,02,29,12.70
2009,08,23,02,30,12.70
2009,08,23,02,31,12.70
2009,08,23,02,32,12.70
2009,08,23,02,33,12.60
2009,08,23,02,34,12.60
2009,08,23,02,35,12.60
2009,08,23,02,36,12.60
2009,08,23,02,37,12.60
2009,08,23,02,38,12.50
2009,08,23,02,39,12.50
2009,08,23,02,40,12.50
2009,08,23,02,41,12.50
2009,08,23,02,42,12.50
2009,08,23,02,43,12.40
2009,08,23,02,44,12.40
2009,08,23,02,45,12.30
2009,08,23,02,46,12.30
2009,08,23,02,47,12.30
2009,08,23,02,48,12.30
2009,08,23,02,49,12.30
2009,08,23,02,50,12.30
2009,08,23,02,51,12.20
2009,08,23,02,52,12.20
2009,08,23,02,53,12.20
2009,08,23,02,54,12.10
2009,08,23,02,55,12.10
2009,08,23,02,56,12.10
2009,08,23,02,57,12.00
2009,08,23,02,58,12.00
2009,08,23,02,59,12.00
2009,08,23,03,00,12.00
2009,08,23,03,01,11.90
2009,08,23,03,02,11.90
2009,08,23,03,03,11.90
2009,08,23,03,04,11.90
2009,08,23,03,05,11.80
2009,08,23,03,06,11.80
2009,08,23,03,07,11.80
2009,08,23,03,08,11.80
2009,08,23,03,09,11.80
2009,08,23,03,10,11.80
2009,08,23,03,11,11.80
2009,08,23,03,12,11.80
2009,08,23,03,13,11.80
2009,08,23,03,14,11.80
2009,08,23,03,15,11.70
2009,08,23,03,16,11.70
2009,08,23,03,17,11.70
2009,08,23,03,18,11.70
2009,08,23,03,19,11.70
2009,08,23,03,20,11.70
2009,08,23,03,21,11.70
2009,08,23,03,22,11.70
2009,08,23,03,23,11.70
2009,08,23,03,24,11.70
2009,08,23,03,25,11.70
2009,08,23,03,26,11.70
2009,08,23,03,27,11.70
2009,08,23,03,28,11.70
2009,08,23,03,29,11.60
2009,08,23,03,30,11.60
2009,08,23,03,31,11.60
2009,08,23,03,32,11.70
2009,08,23,03,33,11.70
2009,08,23,03,34,11.70
2009,08,23,03,35,11.70
2009,08,23,03,36,11.70
2009,08,23,03,37,11.60
2009,08,23,03,38,11.60
2009,08,23,03,39,11.60
2009,08,23,03,40,11.60
2009,08,23,03,41,11.60
2009,08,23,03,42,11.60
2009,08,23,03,43,11.70
2009,08,23,03,44,11.70
2009,08,23,03,45,11.70
2009,08,23,03,46,11.70
2009,08,23,03,47,11.70
2009,08,23,03,48,11.60
2009,08,23,03,49,11.60
2009,08,23,03,50,11.60
2009,08,23,03,51,11.60
2009,08,23,03,52,11.60
2009,08,23,03,53,11.60
2009,08,23,03,54,11.60
2009,08,23,03,55,11.60
2009,08,23,03,56,11.60
2009,08,23,03,57,11.60
2009,08,23,03,58,11.60
2009,08,23,03,59,11.60
2009,08,23,04,00,11.60
2009,08,23,04,01,11.60
2009,08,23,04,02,11.60
2009,08,23,04,03,11.60
2009,08,23,04,04,11.60
2009,08,23,04,05,11.60
2009,08,23,04,06,11.60
2009,08,23,04,07,11.60
2009,08,23,04,08,11.60
2009,08,23,04,09,11.70
2009,08,23,04,10,11.70
2009,08,23,04,11,11.70
2009,08,23,04,12,11.80
2009,08,23,04,13,11.80
2009,08,23,04,14,11.80
2009,08,23,04,15,11.90
2009,08,23,04,16,11.90
2009,08,23,04,17,12.00
2009,08,23,04,18,12.00
2009,08,23,04,19,12.10
2009,08,23,04,20,12.10
2009,08,23,04,21,12.10
2009,08,23,04,22,12.20
2009,08,23,04,23,12.20
2009,08,23,04,24,12.30
2009,08,23,04,25,12.30
2009,08,23,04,26,12.30
2009,08,23,04,27,12.30
2009,08,23,04,28,12.40
2009,08,23,04,29,12.40
2009,08,23,04,30,12.40
2009,08,23,04,31,12.50
2009,08,23,04,32,12.50
2009,08,23,04,33,12.50
2009,08,23,04,34,12.50
2009,08,23,04,35,12.60
2009,08,23,04,36,12.60
2009,08,23,04,37,12.60
2009,08,23,04,38,12.60
2009,08,23,04,39,12.70
2009,08,23,04,40,12.70
2009,08,23,04,41,12.70
2009,08,23,04,42,12.70
2009,08,23,04,43,12.80
2009,08,23,04,44,12.80
2009,08,23,04,45,12.80
2009,08,23,04,46,12.80
2009,08,23,04,47,12.80
2009,08,23,04,48,12.80
2009,08,23,04,49,12.90
2009,08,23,04,50,12.90
2009,08,23,04,51,12.90
2009,08,23,04,52,13.00
2009,08,23,04,53,13.00
2009,08,23,04,54,13.00
2009,08,23,04,55,13.10
2009,08,23,04,56,13.10
2009,08,23,04,57,13.10
2009,08,23,04,58,13.10
2009,08,23,04,59,13.20
2009,08,23,05,00,13.20
2009,08,23,05,01,13.20
2009,08,23,05,02,13.20
2009,08,23,05,03,13.20
2009,08,23,05,04,13.20
2009,08,23,05,05,13.20
2009,08,23,05,06,13.20
2009,08,23,05,07,13.20
2009,08,23,05,08,13.20
2009,08,23,05,09,13.20
2009,08,23,05,10,13.30
2009,08,23,05,11,13.30
2009,08,23,05,12,13.30
2009,08,23,05,13,13.30
2009,08,23,05,14,13.30
2009,08,23,05,15,13.30
2009,08,23,05,16,13.30
2009,08,23,05,17,13.30
2009,08,23,05,18,13.30
2009,08,23,05,19,13.30
2009,08,23,05,20,13.30
2009,08,23,05,21,13.30
2009,08,23,05,22,13.30
2009,08,23,05,23,13.30
2009,08,23,05,24,13.30
2009,08,23,05,25,13.30
2009,08,23,05,26,13.30
2009,08,23,05,27,13.30
2009,08,23,05,28,13.30
2009,08,23,05,29,13.30
2009,08,23,05,30,13.30
2009,08,23,05,31,13.30
2009,08,23,05,32,13.30
2009,08,23,05,33,13.30
2009,08,23,05,34,13.30
2009,08,23,05,35,13.30
2009,08,23,05,36,13.30
2009,08,23,05,37,13.30
2009,08,23,05,38,13.30
2009,08,23,05,39,13.30
2009,08,23,05,40,13.30
2009,08,23,05,41,13.30
2009,08,23,05,42,13.30
2009,08,23,05,43,13.20
2009,08,23,05,44,13.20
2009,08,23,05,45,13.20
2009,08,23,05,46,13.20
2009,08,23,05,47,13.20
2009,08,23,05,48,13.20
2009,08,23,05,49,13.20
2009,08,23,05,50,13.20
2009,08,23,05,51,13.20
2009,08,23,05,52,13.20
2009,08,23,05,53,13.20
2009,08,23,05,54,13.20
2009,08,23,05,55,13.20
2009,08,23,05,56,13.20
2009,08,23,05,57,13.20
2009,08,23,05,58,13.20
2009,08,23,05,59,13.20
2009,08,23,06,00,13.20
2009,08,23,06,01,13.20
2009,08,23,06,02,13.20
2009,08,23,06,03,13.20
2009,08,23,06,04,13.20
2009,08,23,06,05,13.20
2009,08,23,06,06,13.20
2009,08,23,06,07,13.20
2009,08,23,06,08,13.20
2009,08,23,06,09,13.20
2009,08,23,06,10,13.20
2009,08,23,06,11,13.20
2009,08,23,06,12,13.20
2009,08,23,06,13,13.20
2009,08,23,06,14,13.20
2009,08,23,06,15,13.20
2009,08,23,06,16,13.20
2009,08,23,06,17,13.20
2009,08,23,06,18,13.20
2009,08,23,06,19,13.20
2009,08,23,06,20,13.20
2009,08,23,06,21,13.20
2009,08,23,06,22,13.20
2009,08,23,06,23,13.20
2009,08,23,06,24,13.20
2009,08,23,06,25,13.20
2009,08,23,06,26,13.20
2009,08,23,06,27,13.20
2009,08,23,06,28,13.20
2009,08,23,06,29,13.20
2009,08,23,06,30,13.20
2009,08,23,06,31,13.20
2009,08,23,06,32,13.20
2009,08,23,06,33,13.20
2009,08,23,06,34,13.20
2009,08,23,06,35,13.20
2009,08,23,06,36,13.20
2009,08,23,06,37,13.20
2009,08,23,06,38,13.20
2009,08,23,06,39,13.20
2009,08,23,06,40,13.20
2009,08,23,06,41,13.20
2009,08,23,06,42,13.20
2009,08,23,06,43,13.30
2009,08,23,06,44,13.30
2009,08,23,06,45,13.30
2009,08,23,06,46,13.30
2009,08,23,06,47,13.30
2009,08,23,06,48,13.30
2009,08,23,06,49,13.30
2009,08,23,06,50,13.30
2009,08,23,06,51,13.30
2009,08,23,06,52,13.30
2009,08,23,06,53,13.30
2009,08,23,06,54,13.30
2009,08,23,06,55,13.30
2009,08,23,06,56,13.30
2009,08,23,06,57,13.30
2009,08,23,06,58,13.30
2009,08,23,06,59,13.40
2009,08,23,07,00,13.40
2009,08,23,07,01,13.40
2009,08,23,07,02,13.40
2009,08,23,07,03,13.40
2009,08,23,07,04,13.50
2009,08,23,07,05,13.50
2009,08,23,07,06,13.50
2009,08,23,07,07,13.50
2009,08,23,07,08,13.50
2009,08,23,07,09,13.50
2009,08,23,07,10,13.50
2009,08,23,07,11,13.60
2009,08,23,07,12,13.60
2009,08,23,07,13,13.60
2009,08,23,07,14,13.60
2009,08,23,07,15,13.60
2009,08,23,07,16,13.60
2009,08,23,07,17,13.60
2009,08,23,07,18,13.70
2009,08,23,07,19,13.70
2009,08,23,07,20,13.70
2009,08,23,07,21,13.70
2009,08,23,07,22,13.70
2009,08,23,07,23,13.80
2009,08,23,07,24,13.80
2009,08,23,07,25,13.80
2009,08,23,07,26,13.90
2009,08,23,07,27,13.90
2009,08,23,07,28,13.90
2009,08,23,07,29,14.00
2009,08,23,07,30,14.00
2009,08,23,07,31,14.00
2009,08,23,07,32,14.00
2009,08,23,07,33,14.00
2009,08,23,07,34,14.00
2009,08,23,07,35,14.00
2009,08,23,07,36,14.00
2009,08,23,07,37,14.00
2009,08,23,07,38,14.00
2009,08,23,07,39,14.00
2009,08,23,07,40,14.00
2009,08,23,07,41,14.00
2009,08,23,07,42,14.00
2009,08,23,07,43,14.00
2009,08,23,07,44,14.00
2009,08,23,07,45,14.00
2009,08,23,07,46,14.10
2009,08,23,07,47,14.10
2009,08,23,07,48,14.10
2009,08,23,07,49,14.20
2009,08,23,07,50,14.20
2009,08,23,07,51,14.20
2009,08,23,07,52,14.20
2009,08,23,07,53,14.20
2009,08,23,07,54,14.20
2009,08,23,07,55,14.20
2009,08,23,07,56,14.20
2009,08,23,07,57,14.20
2009,08,23,07,58,14.30
2009,08,23,07,59,14.30
2009,08,23,08,00,14.30
2009,08,23,08,01,14.30
2009,08,23,08,02,14.30
2009,08,23,08,03,14.30
2009,08,23,08,04,14.30
2009,08,23,08,05,14.40
2009,08,23,08,06,14.40
2009,08,23,08,07,14.40
2009,08,23,08,08,14.50
2009,08,23,08,09,14.50
2009,08,23,08,10,14.50
2009,08,23,08,11,14.50
2009,08,23,08,12,14.50
2009,08,23,08,13,14.40
2009,08,23,08,14,14.40
2009,08,23,08,15,14.40
2009,08,23,08,16,14.40
2009,08,23,08,17,14.40
2009,08,23,08,18,14.30
2009,08,23,08,19,14.30
2009,08,23,08,20,14.30
2009,08,23,08,21,14.40
2009,08,23,08,22,14.40
2009,08,23,08,23,14.50
2009,08,23,08,24,14.50
2009,08,23,08,25,14.60
2009,08,23,08,26,14.60
2009,08,23,08,27,14.70
2009,08,23,08,28,14.70
2009,08,23,08,29,14.70
2009,08,23,08,30,14.70
2009,08,23,08,31,14.70
2009,08,23,08,32,14.80
2009,08,23,08,33,14.80
2009,08,23,08,34,14.90
2009,08,23,08,35,15.00
2009,08,23,08,36,15.00
2009,08,23,08,37,15.00
2009,08,23,08,38,15.00
2009,08,23,08,39,15.00
2009,08,23,08,40,15.10
2009,08,23,08,41,15.10
2009,08,23,08,42,15.10
2009,08,23,08,43,15.20
2009,08,23,08,44,15.20
2009,08,23,08,45,15.20
2009,08,23,08,46,15.30
2009,08,23,08,47,15.30
2009,08,23,08,48,15.40
2009,08,23,08,49,15.40
2009,08,23,08,50,15.40
2009,08,23,08,51,15.50
2009,08,23,08,52,15.50
2009,08,23,08,53,15.50
2009,08,23,08,54,15.50
2009,08,23,08,55,15.40
2009,08,23,08,56,15.50
2009,08,23,08,57,15.50
2009,08,23,08,58,15.50
2009,08,23,08,59,15.60
2009,08,23,09,00,15.70
2009,08,23,09,01,15.70
2009,08,23,09,02,15.80
2009,08,23,09,03,15.80
2009,08,23,09,04,15.80
2009,08,23,09,05,15.80
2009,08,23,09,06,15.80
2009,08,23,09,07,15.80
2009,08,23,09,08,15.80
2009,08,23,09,09,15.80
2009,08,23,09,10,15.80
2009,08,23,09,11,15.80
2009,08,23,09,12,15.80
2009,08,23,09,13,15.80
2009,08,23,09,14,15.80
2009,08,23,09,15,15.80
2009,08,23,09,16,15.90
2009,08,23,09,17,16.00
2009,08,23,09,18,16.10
2009,08,23,09,19,16.10
2009,08,23,09,20,16.20
2009,08,23,09,21,16.30
2009,08,23,09,22,16.40
2009,08,23,09,23,16.40
2009,08,23,09,24,16.40
2009,08,23,09,25,16.60
2009,08,23,09,26,16.60
2009,08,23,09,27,16.60
2009,08,23,09,28,16.60
2009,08,23,09,29,16.60
2009,08,23,09,30,16.60
2009,08,23,09,31,16.70
2009,08,23,09,32,16.70
2009,08,23,09,33,16.70
2009,08,23,09,34,16.70
2009,08,23,09,35,16.70
2009,08,23,09,36,16.70
2009,08,23,09,37,16.70
2009,08,23,09,38,16.70
2009,08,23,09,39,16.80
2009,08,23,09,40,16.80
2009,08,23,09,41,16.80
2009,08,23,09,42,16.90
2009,08,23,09,43,16.80
2009,08,23,09,44,16.80
2009,08,23,09,45,16.80
2009,08,23,09,46,16.80
2009,08,23,09,47,16.90
2009,08,23,09,48,16.90
2009,08,23,09,49,16.90
2009,08,23,09,50,17.00
2009,08,23,09,51,16.90
2009,08,23,09,52,16.90
2009,08,23,09,53,16.80
2009,08,23,09,54,16.70
2009,08,23,09,55,16.70
2009,08,23,09,56,16.70
2009,08,23,09,57,16.70
2009,08,23,09,58,16.70
2009,08,23,09,59,16.70
2009,08,23,10,00,16.70
2009,08,23,10,01,16.70
2009,08,23,10,02,16.70
2009,08,23,10,03,16.70
2009,08,23,10,04,16.80
2009,08,23,10,05,16.90
2009,08,23,10,06,16.90
2009,08,23,10,07,16.90
2009,08,23,10,08,16.90
2009,08,23,10,09,17.00
2009,08,23,10,10,17.00
2009,08,23,10,11,17.00
2009,08,23,10,12,17.00
2009,08,23,10,13,17.10
2009,08,23,10,14,17.10
2009,08,23,10,15,17.20
2009,08,23,10,16,17.20
2009,08,23,10,17,17.30
2009,08,23,10,18,17.30
2009,08,23,10,19,17.30
2009,08,23,10,20,17.40
2009,08,23,10,21,17.50
2009,08,23,10,22,17.50
2009,08,23,10,23,17.60
2009,08,23,10,24,17.70
2009,08,23,10,25,17.70
2009,08,23,10,26,17.70
2009,08,23,10,27,17.80
2009,08,23,10,28,17.70
2009,08,23,10,29,17.70
2009,08,23,10,30,17.70
2009,08,23,10,31,17.80
2009,08,23,10,32,17.80
2009,08,23,10,33,17.90
2009,08,23,10,34,17.90
2009,08,23,10,35,17.90
2009,08,23,10,36,17.90
2009,08,23,10,37,17.90
2009,08,23,10,38,17.90
2009,08,23,10,39,17.90
2009,08,23,10,40,17.90
2009,08,23,10,41,17.90
2009,08,23,10,42,17.90
2009,08,23,10,43,18.10
2009,08,23,10,44,18.20
2009,08,23,10,45,18.40
2009,08,23,10,46,18.50
2009,08,23,10,47,18.60
2009,08,23,10,48,18.60
2009,08,23,10,49,18.70
2009,08,23,10,50,18.70
2009,08,23,10,51,18.60
2009,08,23,10,52,18.60
2009,08,23,10,53,18.70
2009,08,23,10,54,18.70
2009,08,23,10,55,18.70
2009,08,23,10,56,18.80
2009,08,23,10,57,18.80
2009,08,23,10,58,18.80
2009,08,23,10,59,18.90
2009,08,23,11,00,19.00
2009,08,23,11,01,19.20
2009,08,23,11,02,19.30
2009,08,23,11,03,19.50
2009,08,23,11,04,19.60
2009,08,23,11,05,19.60
2009,08,23,11,06,19.50
2009,08,23,11,07,19.40
2009,08,23,11,08,19.50
2009,08,23,11,09,19.50
2009,08,23,11,10,19.50
2009,08,23,11,11,19.50
2009,08,23,11,12,19.60
2009,08,23,11,13,19.70
2009,08,23,11,14,19.60
2009,08,23,11,15,19.60
2009,08,23,11,16,19.40
2009,08,23,11,17,19.40
2009,08,23,11,18,19.40
2009,08,23,11,19,19.40
2009,08,23,11,20,19.40
2009,08,23,11,21,19.50
2009,08,23,11,22,19.50
2009,08,23,11,23,19.50
2009,08,23,11,24,19.50
2009,08,23,11,25,19.40
2009,08,23,11,26,19.40
2009,08,23,11,27,19.40
2009,08,23,11,28,19.40
2009,08,23,11,29,19.40
2009,08,23,11,30,19.60
2009,08,23,11,31,19.60
2009,08,23,11,32,19.70
2009,08,23,11,33,19.80
2009,08,23,11,34,19.80
2009,08,23,11,35,19.90
2009,08,23,11,36,19.90
2009,08,23,11,37,19.90
2009,08,23,11,38,19.90
2009,08,23,11,39,19.90
2009,08,23,11,40,19.90
2009,08,23,11,41,19.80
2009,08,23,11,42,19.70
2009,08,23,11,43,19.60
2009,08,23,11,44,19.60
2009,08,23,11,45,19.60
2009,08,23,11,46,19.60
2009,08,23,11,47,19.50
2009,08,23,11,48,19.40
2009,08,23,11,49,19.50
2009,08,23,11,50,19.40
2009,08,23,11,51,19.40
2009,08,23,11,52,19.40
2009,08,23,11,53,19.50
2009,08,23,11,54,19.60
2009,08,23,11,55,19.60
2009,08,23,11,56,19.60
2009,08,23,11,57,19.60
2009,08,23,11,58,19.70
2009,08,23,11,59,19.70
2009,08,23,12,00,19.80
2009,08,23,12,01,19.80
2009,08,23,12,02,19.80
2009,08,23,12,03,19.80
2009,08,23,12,04,19.80
2009,08,23,12,05,19.80
2009,08,23,12,06,19.80
2009,08,23,12,07,19.70
2009,08,23,12,08,19.70
2009,08,23,12,09,19.80
2009,08,23,12,10,19.80
2009,08,23,12,11,19.80
2009,08,23,12,12,19.70
2009,08,23,12,13,19.70
2009,08,23,12,14,19.60
2009,08,23,12,15,19.70
2009,08,23,12,16,19.70
2009,08,23,12,17,19.70
2009,08,23,12,18,19.70
2009,08,23,12,19,19.70
2009,08,23,12,20,19.60
2009,08,23,12,21,19.60
2009,08,23,12,22,19.60
2009,08,23,12,23,19.80
2009,08,23,12,24,19.90
2009,08,23,12,25,19.90
2009,08,23,12,26,19.80
2009,08,23,12,27,19.70
2009,08,23,12,28,19.60
2009,08,23,12,29,19.50
2009,08,23,12,30,19.50
2009,08,23,12,31,19.50
2009,08,23,12,32,19.50
2009,08,23,12,33,19.60
2009,08,23,12,34,19.60
2009,08,23,12,35,19.60
2009,08,23,12,36,19.60
2009,08,23,12,37,19.60
2009,08,23,12,38,19.60
2009,08,23,12,39,19.70
2009,08,23,12,40,19.70
2009,08,23,12,41,19.70
2009,08,23,12,42,19.60
2009,08,23,12,43,19.60
2009,08,23,12,44,19.60
2009,08,23,12,45,19.60
2009,08,23,12,46,19.50
2009,08,23,12,47,19.60
2009,08,23,12,48,19.60
2009,08,23,12,49,19.60
2009,08,23,12,50,19.60
2009,08,23,12,51,19.50
2009,08,23,12,52,19.60
2009,08,23,12,53,19.60
2009,08,23,12,54,19.60
2009,08,23,12,55,19.60
2009,08,23,12,56,19.60
2009,08,23,12,57,19.60
2009,08,23,12,58,19.50
2009,08,23,12,59,19.60
2009,08,23,13,00,19.70
2009,08,23,13,01,19.70
2009,08,23,13,02,19.70
2009,08,23,13,03,19.70
2009,08,23,13,04,19.60
2009,08,23,13,05,19.40
2009,08,23,13,06,19.40
2009,08,23,13,07,19.40
2009,08,23,13,08,19.40
2009,08,23,13,09,19.50
2009,08,23,13,10,19.60
2009,08,23,13,11,19.60
2009,08,23,13,12,19.70
2009,08,23,13,13,19.70
2009,08,23,13,14,19.70
2009,08,23,13,15,19.80
2009,08,23,13,16,19.80
2009,08,23,13,17,19.80
2009,08,23,13,18,19.70
2009,08,23,13,19,19.70
2009,08,23,13,20,19.80
2009,08,23,13,21,19.90
2009,08,23,13,22,19.90
2009,08,23,13,23,19.90
2009,08,23,13,24,20.00
2009,08,23,13,25,20.10
2009,08,23,13,26,20.10
2009,08,23,13,27,20.20
2009,08,23,13,28,20.20
2009,08,23,13,29,20.20
2009,08,23,13,30,20.20
2009,08,23,13,31,20.20
2009,08,23,13,32,20.20
2009,08,23,13,33,20.20
2009,08,23,13,34,20.10
2009,08,23,13,35,20.10
2009,08,23,13,36,20.10
2009,08,23,13,37,20.10
2009,08,23,13,38,20.10
2009,08,23,13,39,20.20
2009,08,23,13,40,20.20
2009,08,23,13,41,20.20
2009,08,23,13,42,20.20
2009,08,23,13,43,20.20
2009,08,23,13,44,20.20
2009,08,23,13,45,20.30
2009,08,23,13,46,20.30
2009,08,23,13,47,20.40
2009,08,23,13,48,20.40
2009,08,23,13,49,20.50
2009,08,23,13,50,20.50
2009,08,23,13,51,20.50
2009,08,23,13,52,20.50
2009,08,23,13,53,20.40
2009,08,23,13,54,20.50
2009,08,23,13,55,20.50
2009,08,23,13,56,20.50
2009,08,23,13,57,20.60
2009,08,23,13,58,20.50
2009,08,23,13,59,20.50
2009,08,23,14,00,20.50
2009,08,23,14,01,20.50
2009,08,23,14,02,20.50
2009,08,23,14,03,20.40
2009,08,23,14,04,20.40
2009,08,23,14,05,20.50
2009,08,23,14,06,20.50
2009,08,23,14,07,20.60
2009,08,23,14,08,20.50
2009,08,23,14,09,20.50
2009,08,23,14,10,20.40
2009,08,23,14,11,20.40
2009,08,23,14,12,20.40
2009,08,23,14,13,20.50
2009,08,23,14,14,20.60
2009,08,23,14,15,20.70
2009,08,23,14,16,20.70
2009,08,23,14,17,20.70
2009,08,23,14,18,20.80
2009,08,23,14,19,20.80
2009,08,23,14,20,20.80
2009,08,23,14,21,20.90
2009,08,23,14,22,20.90
2009,08,23,14,23,20.90
2009,08,23,14,24,20.90
2009,08,23,14,25,21.00
2009,08,23,14,26,21.00
2009,08,23,14,27,21.00
2009,08,23,14,28,21.10
2009,08,23,14,29,21.00
2009,08,23,14,30,20.80
2009,08,23,14,31,20.70
2009,08,23,14,32,20.70
2009,08,23,14,33,20.80
2009,08,23,14,34,20.70
2009,08,23,14,35,20.70
2009,08,23,14,36,20.70
2009,08,23,14,37,20.70
2009,08,23,14,38,20.70
2009,08,23,14,39,20.70
2009,08,23,14,40,20.70
2009,08,23,14,41,20.80
2009,08,23,14,42,20.70
2009,08,23,14,43,20.70
2009,08,23,14,44,20.70
2009,08,23,14,45,20.80
2009,08,23,14,46,20.80
2009,08,23,14,47,20.90
2009,08,23,14,48,20.80
2009,08,23,14,49,20.80
2009,08,23,14,50,20.80
2009,08,23,14,51,20.80
2009,08,23,14,52,20.70
2009,08,23,14,53,20.70
2009,08,23,14,54,20.70
2009,08,23,14,55,20.70
2009,08,23,14,56,20.60
2009,08,23,14,57,20.60
2009,08,23,14,58,20.70
2009,08,23,14,59,20.60
2009,08,23,15,00,20.60
2009,08,23,15,01,20.50
2009,08,23,15,02,20.50
2009,08,23,15,03,20.50
2009,08,23,15,04,20.50
2009,08,23,15,05,20.50
2009,08,23,15,06,20.50
2009,08,23,15,07,20.60
2009,08,23,15,08,20.60
2009,08,23,15,09,20.70
2009,08,23,15,10,20.60
2009,08,23,15,11,20.60
2009,08,23,15,12,20.60
2009,08,23,15,13,20.60
2009,08,23,15,14,20.60
2009,08,23,15,15,20.60
2009,08,23,15,16,20.70
2009,08,23,15,17,20.70
2009,08,23,15,18,20.70
2009,08,23,15,19,20.80
2009,08,23,15,20,20.80
2009,08,23,15,21,20.80
2009,08,23,15,22,20.80
2009,08,23,15,23,20.90
2009,08,23,15,24,20.90
2009,08,23,15,25,20.90
2009,08,23,15,26,20.90
2009,08,23,15,27,20.90
2009,08,23,15,28,20.90
2009,08,23,15,29,20.90
2009,08,23,15,30,20.90
2009,08,23,15,31,20.90
2009,08,23,15,32,20.90
2009,08,23,15,33,20.90
2009,08,23,15,34,20.90
2009,08,23,15,35,21.00
2009,08,23,15,36,21.00
2009,08,23,15,37,21.00
2009,08,23,15,38,21.00
2009,08,23,15,39,21.00
2009,08,23,15,40,21.00
2009,08,23,15,41,21.00
2009,08,23,15,42,20.90
2009,08,23,15,43,21.00
2009,08,23,15,44,21.00
2009,08,23,15,45,21.10
2009,08,23,15,46,21.20
2009,08,23,15,47,21.10
2009,08,23,15,48,21.20
2009,08,23,15,49,21.20
2009,08,23,15,50,21.10
2009,08,23,15,51,21.10
2009,08,23,15,52,21.00
2009,08,23,15,53,21.00
2009,08,23,15,54,20.90
2009,08,23,15,55,20.90
2009,08,23,15,56,20.80
2009,08,23,15,57,20.70
2009,08,23,15,58,20.60
2009,08,23,15,59,20.50
2009,08,23,16,00,20.40
2009,08,23,16,01,20.40
2009,08,23,16,02,20.30
2009,08,23,16,03,20.40
2009,08,23,16,04,20.40
2009,08,23,16,05,20.40
2009,08,23,16,06,20.50
2009,08,23,16,07,20.50
2009,08,23,16,08,20.40
2009,08,23,16,09,20.30
2009,08,23,16,10,20.30
2009,08,23,16,11,20.20
2009,08,23,16,12,20.20
2009,08,23,16,13,20.20
2009,08,23,16,14,20.20
2009,08,23,16,15,20.10
2009,08,23,16,16,20.00
2009,08,23,16,17,19.80
2009,08,23,16,18,19.70
2009,08,23,16,19,19.70
2009,08,23,16,20,19.70
2009,08,23,16,21,19.70
2009,08,23,16,22,19.60
2009,08,23,16,23,19.60
2009,08,23,16,24,19.60
2009,08,23,16,25,19.60
2009,08,23,16,26,19.60
2009,08,23,16,27,19.60
2009,08,23,16,28,19.60
2009,08,23,16,29,19.70
2009,08,23,16,30,19.70
2009,08,23,16,31,19.70
2009,08,23,16,32,19.60
2009,08,23,16,33,19.60
2009,08,23,16,34,19.50
2009,08,23,16,35,19.50
2009,08,23,16,36,19.40
2009,08,23,16,37,19.30
2009,08,23,16,38,19.30
2009,08,23,16,39,19.30
2009,08,23,16,40,19.20
2009,08,23,16,41,19.10
2009,08,23,16,42,18.90
2009,08,23,16,43,18.80
2009,08,23,16,44,18.70
2009,08,23,16,45,18.60
2009,08,23,16,46,18.50
2009,08,23,16,47,18.40
2009,08,23,16,48,18.40
2009,08,23,16,49,18.30
2009,08,23,16,50,18.20
2009,08,23,16,51,18.20
2009,08,23,16,52,18.20
2009,08,23,16,53,18.20
2009,08,23,16,54,18.10
2009,08,23,16,55,17.90
2009,08,23,16,56,17.90
2009,08,23,16,57,17.90
2009,08,23,16,58,17.90
2009,08,23,16,59,17.80
2009,08,23,17,00,17.60
2009,08,23,17,01,17.40
2009,08,23,17,02,17.20
2009,08,23,17,03,17.00
2009,08,23,17,04,16.80
2009,08,23,17,05,16.70
2009,08,23,17,06,16.60
2009,08,23,17,07,16.40
2009,08,23,17,08,16.40
2009,08,23,17,09,16.40
2009,08,23,17,10,16.30
2009,08,23,17,11,16.30
2009,08,23,17,12,16.20
2009,08,23,17,13,16.10
2009,08,23,17,14,16.10
2009,08,23,17,15,16.10
2009,08,23,17,16,16.10
2009,08,23,17,17,16.10
2009,08,23,17,18,16.10
2009,08,23,17,19,16.10